Date,TemperatureHighF,TemperatureAvgF,TemperatureLowF,DewpointHighF,DewpointAvgF,DewpointLowF,HumidityHigh,HumidityAvg,HumidityLow,PressureMaxIn,PressureMinIn,WindSpeedMaxMPH,WindSpeedAvgMPH,GustSpeedMaxMPH,PrecipitationSumIn
2013-1-1,53.0,48.5,39.0,53.0,48.5,39.0,100,100,100,0.00,40.00,10,1,0,19.64
2013-1-2,39.0,35.2,33.0,39.0,35.2,33.0,100,100,100,0.00,40.00,6,1,0,0.00
2013-1-3,41.0,34.4,32.0,39.0,34.0,32.0,100,99,88,0.00,40.00,9,1,0,0.00
2013-1-4,46.0,35.8,29.0,37.0,32.9,29.0,100,90,66,0.00,40.00,6,0,0,0.00
2013-1-5,49.0,39.7,32.0,43.0,36.7,32.0,100,90,65,0.00,40.00,4,0,0,0.00
2013-1-6,50.0,41.5,36.0,48.0,41.2,35.0,100,99,91,0.00,40.00,6,0,0,0.00
2013-1-7,51.0,38.3,27.0,43.0,36.1,27.0,100,93,69,0.00,40.00,0,0,0,0.06
2013-1-8,60.0,48.4,40.0,54.0,46.5,39.0,100,94,75,0.00,40.00,5,0,0,0.24
2013-1-9,57.0,53.5,49.0,57.0,53.5,49.0,100,100,100,0.00,40.00,7,0,0,0.24
2013-1-10,65.0,60.3,57.0,65.0,60.3,57.0,100,100,100,0.00,40.00,10,1,0,1.11
2013-1-11,66.0,64.0,62.0,66.0,64.0,62.0,100,100,100,0.00,40.00,9,3,0,6.03
2013-1-12,70.0,66.8,65.0,70.0,66.8,65.0,100,100,100,0.00,40.00,12,4,0,10.64
2013-1-13,69.0,60.3,40.0,69.0,60.3,40.0,100,100,100,0.00,40.00,13,5,0,12.00
2013-1-14,40.0,35.9,33.0,40.0,35.9,33.0,100,100,100,0.00,40.00,13,2,0,12.00
2013-1-15,43.0,36.7,34.0,43.0,36.7,34.0,100,100,100,0.00,40.00,8,1,0,12.00
2013-1-16,38.0,37.1,36.0,38.0,37.1,36.0,100,100,100,0.00,40.00,8,0,0,13.50
2013-1-17,39.0,36.3,33.0,39.0,36.3,33.0,100,100,100,0.00,40.00,15,4,0,14.40
2013-1-18,48.0,37.8,29.0,43.0,36.0,29.0,100,94,69,0.00,40.00,5,0,0,14.40
2013-1-19,56.0,44.1,34.0,44.0,39.6,34.0,100,85,62,0.00,40.00,7,1,0,14.40
2013-1-20,59.0,47.2,39.0,49.0,44.3,39.0,100,91,69,0.00,40.00,9,0,0,14.40
2013-1-21,45.0,39.1,31.0,44.0,33.4,26.0,100,81,57,0.00,40.00,11,1,0,14.40
2013-1-22,38.0,31.9,24.0,31.0,26.7,23.0,97,81,66,0.00,40.00,7,0,0,14.40
2013-1-23,56.0,44.2,34.0,48.0,38.9,30.0,99,82,63,0.00,40.00,7,0,0,14.40
2013-1-24,50.0,41.9,36.0,50.0,36.5,29.0,100,82,57,0.00,40.00,10,1,0,14.40
2013-1-25,53.0,44.9,38.0,53.0,41.0,27.0,100,87,63,0.00,40.00,16,2,0,14.81
2013-1-26,52.0,41.7,33.0,45.0,39.6,33.0,100,93,69,0.00,40.00,3,0,0,23.46
2013-1-27,51.0,47.2,42.0,49.0,44.8,41.0,100,92,79,0.00,40.00,8,1,0,24.24
2013-6-12,92.0,80.7,74.0,85.0,78.0,74.0,100,93,63,0.00,40.00,9,1,0,0.00
2013-6-13,89.0,79.2,72.0,86.0,78.7,71.0,100,98,88,0.00,40.00,10,2,0,0.00
2013-6-14,82.0,72.6,64.0,73.0,67.4,64.0,100,86,55,0.00,40.00,8,1,0,0.00
2013-6-15,88.0,72.8,63.0,74.0,69.4,63.0,100,91,60,0.00,40.00,5,0,0,0.00
2013-6-16,87.0,71.6,68.0,81.0,71.4,68.0,100,99,80,0.00,40.00,6,0,0,0.00
2013-6-17,87.0,73.6,68.0,84.0,73.3,68.0,100,99,84,0.00,40.00,8,0,0,0.00
2013-6-18,78.0,72.5,68.0,78.0,72.5,68.0,100,100,98,0.00,40.00,8,1,0,0.00
2013-6-19,87.0,74.8,66.0,80.0,72.6,66.0,100,94,67,0.00,40.00,8,0,0,0.00
2013-6-20,87.0,75.3,68.0,80.0,72.9,68.0,100,93,68,0.00,40.00,6,0,0,0.00
2013-6-22,87.0,78.9,71.0,75.0,72.1,70.0,99,81,62,0.00,40.00,6,0,0,0.00
2013-6-23,88.0,72.8,68.0,78.0,71.3,68.0,100,96,69,0.00,40.00,5,0,0,0.00
2013-6-24,80.0,73.4,70.0,80.0,73.4,70.0,100,100,100,0.00,40.00,2,0,0,0.00
2013-6-25,80.0,74.7,72.0,80.0,74.7,72.0,100,100,100,0.00,40.00,3,0,0,0.00
2013-6-26,79.0,74.4,71.0,79.0,74.4,71.0,100,100,100,0.00,40.00,3,0,0,0.00
2013-6-27,89.0,76.0,70.0,84.0,75.4,70.0,100,99,73,0.00,40.00,7,2,0,0.00
2013-6-28,80.0,75.5,72.0,80.0,75.5,72.0,100,100,99,0.00,40.00,0,0,0,0.00
2013-6-29,86.0,75.2,69.0,77.0,71.0,67.0,100,89,53,0.00,40.00,6,0,0,0.00
2013-6-30,85.0,70.0,64.0,72.0,67.7,64.0,100,94,58,0.00,40.00,3,0,0,0.00
2013-7-1,74.0,65.7,63.0,74.0,65.7,63.0,100,100,94,0.00,40.00,0,0,0,0.00
2013-7-2,82.0,69.5,63.0,74.0,67.9,63.0,100,95,69,0.00,40.00,7,0,0,0.00
2013-7-3,77.0,71.7,67.0,77.0,71.7,67.0,100,100,100,0.00,40.00,0,0,0,0.00
2013-7-4,74.0,70.4,67.0,74.0,70.4,67.0,100,100,100,0.00,40.00,8,0,0,0.00
2013-7-5,75.0,70.9,69.0,75.0,70.9,69.0,100,100,100,0.00,40.00,5,0,0,0.00
2013-7-6,73.0,70.9,69.0,73.0,70.9,69.0,100,100,100,0.00,40.00,0,0,0,0.00
2013-7-7,81.0,73.4,70.0,81.0,73.4,70.0,100,100,100,0.00,40.00,3,0,0,0.00
2013-7-8,82.0,74.1,71.0,82.0,74.1,71.0,100,100,99,0.00,40.00,4,0,0,0.00
2013-7-9,88.0,75.6,73.0,82.0,75.5,73.0,100,100,83,0.00,40.00,0,0,0,0.00
2013-7-10,82.0,72.9,72.0,82.0,69.1,-99.9,100,96,100,0.00,40.00,6,1,0,0.00
2013-7-11,83.0,74.1,69.0,83.0,74.1,69.0,100,100,100,0.00,40.00,3,0,0,0.00
2013-7-12,82.0,72.6,69.0,79.0,72.0,69.0,100,98,84,0.00,40.00,4,0,0,0.00
2013-7-13,83.0,70.2,63.0,79.0,70.0,63.0,100,99,85,0.00,40.00,4,0,0,0.00
2013-7-14,80.0,73.7,71.0,80.0,73.7,71.0,100,100,100,0.00,40.00,6,0,0,0.00
2013-7-15,78.0,73.4,72.0,78.0,73.4,72.0,100,100,100,0.00,40.00,5,0,0,0.00
2013-7-16,89.0,76.3,71.0,80.0,74.7,71.0,100,96,69,0.00,40.00,3,0,0,0.00
2013-7-17,82.0,75.7,73.0,82.0,75.7,73.0,100,100,100,0.00,40.00,0,0,0,0.00
2013-7-18,88.0,75.0,71.0,80.0,73.9,71.0,100,97,73,0.00,40.00,3,0,0,0.00
2013-7-19,90.0,76.6,71.0,80.0,74.3,71.0,100,94,69,0.00,40.00,3,0,0,0.00
2013-7-20,82.0,73.3,71.0,82.0,71.4,-99.9,100,98,99,0.00,40.00,3,0,0,0.00
2013-7-21,82.0,73.4,70.0,82.0,73.4,70.0,100,100,100,0.00,40.00,5,0,0,0.00
2013-7-22,77.0,71.9,69.0,77.0,71.9,69.0,100,100,100,0.00,40.00,6,0,0,0.00
2013-7-23,76.0,72.4,70.0,76.0,72.4,70.0,100,100,100,0.00,40.00,3,0,0,0.00
2013-7-24,81.0,72.3,68.0,81.0,72.3,68.0,100,100,100,0.00,40.00,5,0,0,0.00
2013-7-25,82.0,70.8,67.0,75.0,70.5,67.0,100,99,73,0.00,40.00,7,0,0,0.00
2013-7-26,76.0,69.7,65.0,76.0,69.7,65.0,100,100,100,0.00,40.00,0,0,0,0.00
2013-7-27,83.0,73.3,69.0,79.0,72.6,69.0,100,98,77,0.00,40.00,5,0,0,0.00
2013-7-28,76.0,71.4,68.0,76.0,71.4,68.0,100,100,100,0.00,40.00,6,0,0,0.00
2013-7-29,80.0,67.6,65.0,72.0,67.2,65.0,100,99,71,0.00,40.00,4,0,0,0.00
2013-7-30,88.0,71.1,65.0,81.0,70.7,65.0,100,99,78,0.00,40.00,3,0,0,0.00
2013-7-31,83.0,74.2,71.0,83.0,74.2,71.0,100,100,100,0.00,40.00,4,0,0,0.00
2013-8-1,85.0,74.0,69.0,82.0,73.7,69.0,100,99,90,0.00,40.00,9,1,0,0.00
2013-8-2,85.0,71.3,67.0,79.0,70.5,67.0,100,98,72,0.00,40.00,7,0,0,0.00
2013-8-3,81.0,75.1,68.0,81.0,75.1,68.0,100,100,100,0.00,40.00,3,0,0,0.00
2013-8-4,80.0,73.7,70.0,80.0,73.7,69.0,100,100,100,0.00,40.00,8,0,0,0.00
2013-8-5,77.0,70.5,68.0,77.0,70.5,68.0,100,100,100,0.00,40.00,0,0,0,0.00
2013-8-6,82.0,74.3,70.0,82.0,74.3,70.0,100,100,100,0.00,40.00,6,0,0,0.00
2013-8-7,82.0,73.9,72.0,82.0,73.9,72.0,100,100,100,0.00,40.00,8,0,0,0.00
2013-8-8,80.0,73.0,69.0,80.0,73.0,69.0,100,100,100,0.00,40.00,5,0,0,0.00
2013-8-9,81.0,75.5,72.0,81.0,75.5,72.0,100,100,100,0.00,40.00,3,0,0,0.00
2013-8-10,83.0,75.6,71.0,83.0,75.6,71.0,100,100,100,0.00,40.00,6,0,0,0.00
2013-8-11,83.0,74.1,71.0,83.0,74.1,71.0,100,100,100,0.00,40.00,5,0,0,0.00
2013-9-29,67.0,62.7,59.0,67.0,62.7,59.0,100,100,100,0.00,40.00,3,0,0,0.00
2013-9-30,69.0,64.3,61.0,69.0,64.3,61.0,100,100,100,0.00,40.00,0,0,0,0.00
2013-10-1,71.0,68.2,66.0,71.0,68.2,66.0,100,100,100,0.00,40.00,0,0,0,0.00
2013-10-2,75.0,67.9,64.0,75.0,67.9,64.0,100,100,100,0.00,40.00,0,0,0,0.00
2013-10-3,73.0,67.9,65.0,73.0,67.9,65.0,100,100,100,0.00,40.00,0,0,0,0.00
2013-10-4,74.0,68.8,66.0,74.0,68.8,66.0,100,100,100,0.00,40.00,0,0,0,0.00
2013-10-5,76.0,70.5,68.0,76.0,70.5,68.0,100,100,100,0.00,40.00,0,0,0,0.00
2013-10-18,61.0,53.6,50.0,61.0,53.6,50.0,100,100,100,0.00,40.00,0,0,0,0.00
2013-10-19,61.0,52.0,46.0,61.0,49.5,-99.9,100,98,100,0.00,40.00,7,0,0,0.00
2013-10-20,53.0,46.4,41.0,53.0,45.9,41.0,100,98,93,0.00,40.00,0,0,0,0.00
2013-10-21,59.0,55.9,55.0,59.0,55.9,55.0,100,100,99,0.00,40.00,0,0,0,0.00
2013-10-22,62.0,55.9,52.0,62.0,55.9,52.0,100,100,100,0.00,40.00,5,0,0,0.00
2013-10-23,52.0,47.4,42.0,52.0,47.4,42.0,100,100,97,0.00,40.00,8,1,0,0.00
2013-10-24,52.0,45.7,40.0,52.0,45.7,40.0,100,100,98,0.00,40.00,5,0,0,0.00